Regional Weather Roundup
Issued by NWS

Home | Current Version | Previous Version | Graphics & Text | Print | Product List | Glossary On
Versions: 1 2 3 4 5 6 7 8 9 10 11 12 13 14 15 16 17 18 19 20 21 22 23 24 25 26 27 28 29 30 31 32 33 34 35 36 37 38 39 40 41 42 43 44 45 46 47 48 49 50
000
ASUS43 KMPX 201701
RWRMN
WEATHER ROUNDUP FOR MINNESOTA
NATIONAL WEATHER SERVICE TWIN CITIES/CHANHASSEN MN
1200 PM CDT THU JUL 20 2017


NOTE: "FAIR" INDICATES FEW OR NO CLOUDS BELOW 12,000 FEET WITH NO
SIGNIFICANT WEATHER AND/OR OBSTRUCTIONS TO VISIBILITY. N/A MEANS
CURRENT SKY AND/OR WEATHER CONDITIONS ARE NOT AVAILABLE.

MNZ060>063-068>070-201800-
   Twin Cities Metro

CITY           SKY/WX    TMP DP  RH WIND       PRES   REMARKS
TWIN CITIES    CLOUDY    81  69  67 VRB3      30.02F
ST PAUL        MOSUNNY   79  69  71 CALM      30.02F
CRYSTAL        CLOUDY    80  65  59 VRB3      30.01F
BLAINE         PTSUNNY   81  66  61 CALM      30.02F
LAKEVILLE      CLOUDY    75  72  88 NE3       30.03S
EDEN PRAIRIE   CLOUDY    81  71  71 VRB5      30.02S
SOUTH ST PAUL  CLOUDY    78  72  81 NE3       30.02F
LAKE ELMO      FAIR      79  70  73 CALM      30.04F
$$
MNZ001>005-007-008-013>017-022>024-027-028-201800-
   Northwest Minnesota

CITY           SKY/WX    TMP DP  RH WIND       PRES   REMARKS
BEMIDJI        SUNNY     76  60  58 SW5       30.04R
HALLOCK        MOSUNNY   72  57  60 CALM      30.02S
ROSEAU         SUNNY     72  57  60 CALM      30.04R
WARROAD        SUNNY     70  55  60 E5        30.04R
CROOKSTON      CLOUDY    75  63  64 E3        30.02F
FOSSTON        SUNNY     77  73  88 CALM      30.04S
DETROIT LAKES  CLOUDY    79  61  53 SW6       30.05S
MOORHEAD       CLOUDY    79  61  53 CALM      30.03S
PARK RAPIDS    SUNNY     82  59  45 CALM      30.04R
MAHNOMEN       FAIR      77  60  55 N6        30.04R
$$
MNZ006-009>011-018-025>026-201800-
   North Central Minnesota

CITY           SKY/WX    TMP DP  RH WIND       PRES   REMARKS
BAUDETTE       SUNNY     72  49  44 NW7       30.02S
FLAG ISLAND    SUNNY     70  46  43 N5        30.01S
INTL FALLS     SUNNY     74  57  55 NW8       30.01R
WASKISH        SUNNY     75  61  60 SW5       30.03R
BIG FORK       SUNNY     79  61  53 NW6       30.03R
LONGVILLE      SUNNY     79  63  57 W5        30.04R
GRAND RAPIDS   SUNNY     78  59  51 NW10      30.04S
CRANE LAKE     MOSUNNY   73  57  56 W7        30.01S
ORR            SUNNY     75  55  50 NW8       29.99S
COOK           SUNNY     75  57  53 W9        30.02R
WALKER         FAIR      78  56  46 W5        30.03S
$$
MNZ012-019>021-037-201800-
   Northeast Minnesota

CITY           SKY/WX    TMP DP  RH WIND       PRES   REMARKS
DULUTH         MOSUNNY   79  63  57 NW10      30.01S
ELY            SUNNY     75  55  50 NW6G18    29.99S
HIBBING        SUNNY     77  60  55 NW9G20    30.01R
EVELETH        MOSUNNY   78  53  41 NW9       30.02R
DULUTH HARBOR  SUNNY     81  66  61 W6        29.98F
TWO HARBORS    SUNNY     82  66  57 W7        29.97S
SILVER BAY     MOSUNNY   81  63  54 W3        29.96S
GRAND MARAIS     N/A     81  60  48 W7        29.91F
G MARAIS ARPRT SUNNY     73  54  49 W9G16     29.98S
$$
MNZ029>031-032-039>041-046>048-054>057-064-201800-
   West Central Minnesota

CITY           SKY/WX    TMP DP  RH WIND       PRES   REMARKS
FERGUS FALLS   CLOUDY    77  64  65 S6        30.02F
WHEATON        SUNNY     81  70  69 W3        30.04S
MORRIS         MOSUNNY   81  70  69 NE3       30.02F
ALEXANDRIA     CLOUDY    78  66  66 S3        30.06F
ELBOW LAKE     FAIR      77  70  79 CALM      30.05S
WADENA         MOSUNNY   77  63  61 CALM      30.04S
GLENWOOD       MOSUNNY   81  68  65 CALM      30.05F
APPLETON       CLOUDY    81  68  65 CALM      30.02S
BENSON         CLOUDY    82  68  61 CALM      30.04S
ORTONVILLE     CLOUDY    82  70  65 S3        30.03R
MADISON        CLOUDY    81  70  69 E6        30.03S
WILLMAR        FAIR      79  70  73 CALM      30.05S
$$
MNZ033>034-036-042>043-049>051-058-059-201800-
   Central Minnesota

CITY           SKY/WX    TMP DP  RH WIND       PRES   REMARKS
ST CLOUD       PTSUNNY   79  68  69 CALM      30.02F
SAUK CENTRE    FAIR      78  67  69 CALM      30.05S
PAYNESVILLE    MOSUNNY   80  66  61 CALM      30.04S
AITKIN         MOSUNNY   79  64  61 W5        30.02S
PINE RIVER     MOSUNNY   79  61  53 NW3       30.06F
BRAINERD       MOSUNNY   78  63  59 VRB3      30.04R
STAPLES        MOSUNNY   77  63  61 CALM      30.05S
LONG PRAIRIE   FAIR      77  63  61 CALM      30.06S
LITTLE FALLS   MOSUNNY   77  63  61 CALM      30.04S
LITCHFIELD     CLOUDY    81  70  69 NE3       30.04F
BUFFALO        CLOUDY    78  65  65 CALM      30.04F
MAPLE LAKE     MOSUNNY   79  70  74 CALM      30.04F
HUTCHINSON     MOSUNNY   80  71  73 E5        30.05R
$$
MNZ037-044-045-052-053-201800-
   East Central Minnesota

CITY           SKY/WX    TMP DP  RH WIND       PRES   REMARKS
PRINCETON      MOSUNNY   82  70  65 CALM      30.03S
MORA           MOSUNNY   75  63  64 W3        30.05R
CAMBRIDGE      MOSUNNY   81  66  61 W3        30.02S
RUSH CITY      MOSUNNY   78  68  70 W3        30.03S
MOOSE LAKE     SUNNY     79  63  57 CALM      30.01R
HINCKLEY       FAIR      79  68  69 SW3       30.02S
CLOQUET        SUNNY     79  61  53 N5        30.02S
MCGREGOR       CLOUDY    77  63  61 NW7       30.04S
$$
MNZ071>073-080-081-089-090-097-098-201800-
   Southwest Minnesota

CITY           SKY/WX    TMP DP  RH WIND       PRES   REMARKS
MONTEVIDEO     CLOUDY    82  70  65 E7        30.03F
GRANITE FALLS  CLOUDY    81  69  65 E6        30.05S
CANBY          CLOUDY    80  68  65 CALM      30.05S
MARSHALL       PTSUNNY   76  70  82 E8        30.04F
REDWOOD FALLS  CLOUDY    77  68  73 SE5       30.04R
OLIVIA         CLOUDY    79  68  69 SE7       30.04R
PIPESTONE      CLOUDY    81  66  61 E5        30.07R
WINDOM         MOSUNNY   81  70  69 E10       30.04F
WORTHINGTON    MOSUNNY   80  69  69 E14       30.05S
JACKSON        SUNNY     81  70  69 E10       30.05S
TRACY          CLOUDY    79  71  76 E8        30.05S
SLAYTON        HVY RAIN  78  66  68 E10       30.06R
$$
MNZ065>067-074>077-082>085-091>093-201800-
   South Central Minnesota

CITY           SKY/WX    TMP DP  RH WIND       PRES   REMARKS
MANKATO        MOSUNNY   79  71  76 NE3       30.04R
NEW ULM        CLOUDY    79  68  69 E7        30.05R
ST JAMES       MOSUNNY   81  72  74 E5        30.05R
FAIRMONT       MOSUNNY   80  73  79 E8        30.04R
GLENCOE        CLOUDY    78  73  84 CALM      30.03S
FARIBAULT      MOSUNNY   81  70  69 E5        30.03S
OWATONNA       MOSUNNY   82  72  69 E8        30.03S
WASECA         MOSUNNY   79  72  78 E5        30.04S
ALBERT LEA     MOSUNNY   81  72  74 NE8       30.03R
$$
MNZ078>079-086>088-094>096-201800-
   Southeast Minnesota

CITY           SKY/WX    TMP DP  RH WIND       PRES   REMARKS
ROCHESTER      MOSUNNY   80  72  76 VRB5      30.04S
RED WING       PTSUNNY   79  70  73 NW3       30.01S
STANTON        MOSUNNY   80  70  73 CALM      30.01S
DODGE CENTER   MOSUNNY   81  70  69 E3        30.04S
WINONA         PTSUNNY   79  68  69 CALM      30.02S
AUSTIN         MOSUNNY   81  72  74 E5        30.03R
PRESTON        MOSUNNY   79  69  72 CALM      30.04S
$$
ABBREVIATIONS USED IN REMARKS
   TC - TEMPERATURES IN CELSIUS
  WCI - WIND CHILL INDEX
   HX - HEAT INDEX
  VSB - VISIBILITY
$$




USA.gov is the U.S. government's official web portal to all federal, state and local government web resources and services.